VA7IS Weather Reports


time (UTC)temp
C
wind
direction
speed
KPH
gust
KPH
rain 1hr
cm
rain 24hr
cm
rain mn
cm
humidity
%
barometer
mb
20260504173504 23 165 3.2 9.7 0.00 0.00 0.00 44 1008.8
20260504172504 23 175 3.2 9.7 0.00 0.00 0.00 44 1009.0
20260504172004 22 155 3.2 11.3 0.00 0.00 0.00 44 1008.9
20260504171504 23 171 3.2 11.3 0.00 0.00 0.00 44 1008.9
20260504171004 22 183 3.2 9.7 0.00 0.00 0.00 44 1009.0
20260504170504 22 179 3.2 9.7 0.00 0.00 0.00 44 1009.0
20260504151003 15 0 0.0 1.6 0.00 0.00 0.00 46 1009.2
20260504150504 15 0 0.0 0.0 0.00 0.00 0.00 46 1009.1
20260504140503 14 0 0.0 1.6 0.00 0.00 0.00 56 1008.8
20260504130504 13 274 1.6 1.6 0.00 0.00 0.00 58 1008.4
20260504110504 15 0 0.0 1.6 0.00 0.00 0.00 57 1008.4
20260504081505 16 273 1.6 3.2 0.00 0.00 0.00 54 1008.0
20260504081004 16 273 1.6 3.2 0.00 0.00 0.00 54 1008.0
20260504080504 16 273 1.6 3.2 0.00 0.00 0.00 54 1008.0
20260504050504 18 263 1.6 3.2 0.00 0.00 0.00 48 1007.7
20260504050004 18 263 1.6 3.2 0.00 0.00 0.00 49 1007.8
20260504045503 18 262 1.6 3.2 0.00 0.00 0.00 49 1007.8
20260504044505 18 262 1.6 3.2 0.00 0.00 0.00 51 1007.8
20260504043004 18 263 1.6 4.8 0.00 0.00 0.00 49 1007.7
20260504042504 18 263 1.6 3.2 0.00 0.00 0.00 47 1007.8
20260504042004 18 263 1.6 3.2 0.00 0.00 0.00 48 1007.8
20260504041004 19 263 1.6 3.2 0.00 0.00 0.00 48 1007.8
20260504040504 19 262 1.6 3.2 0.00 0.00 0.00 48 1007.8
20260504040004 19 263 1.6 3.2 0.00 0.00 0.00 49 1007.9
20260504035504 19 263 1.6 3.2 0.00 0.00 0.00 49 1007.9
20260504035003 20 262 1.6 3.2 0.00 0.00 0.00 49 1007.8
20260504034504 20 263 1.6 3.2 0.00 0.00 0.00 49 1007.8
20260504034004 20 262 1.6 3.2 0.00 0.00 0.00 49 1007.8
20260504033504 20 262 1.6 3.2 0.00 0.00 0.00 50 1007.7
20260504032503 20 263 1.6 3.2 0.00 0.00 0.00 49 1007.7
20260504032003 20 263 1.6 3.2 0.00 0.00 0.00 49 1007.8
20260504031504 21 263 1.6 3.2 0.00 0.00 0.00 48 1007.8
20260504031004 21 263 1.6 3.2 0.00 0.00 0.00 48 1007.8
20260504030504 21 263 1.6 3.2 0.00 0.00 0.00 47 1007.9
20260504030004 21 263 1.6 3.2 0.00 0.00 0.00 47 1007.9
20260504025503 21 263 1.6 3.2 0.00 0.00 0.00 48 1007.9
20260504025003 21 263 1.6 3.2 0.00 0.00 0.00 47 1007.9
20260504024004 22 263 1.6 1.6 0.00 0.00 0.00 47 1007.9
20260504023504 22 263 1.6 1.6 0.00 0.00 0.00 49 1007.9
20260504023004 22 263 1.6 3.2 0.00 0.00 0.00 46 1007.9
20260504022504 23 0 0.0 3.2 0.00 0.00 0.00 46 1008.0
20260504022003 23 0 0.0 1.6 0.00 0.00 0.00 48 1008.0
20260504021504 23 263 1.6 1.6 0.00 0.00 0.00 48 1008.0
20260504020504 23 0 0.0 3.2 0.00 0.00 0.00 49 1008.0
20260504015003 24 0 0.0 0.0 0.00 0.00 0.00 44 1008.1
20260504014504 25 0 0.0 0.0 0.00 0.00 0.00 43 1008.1
20260504014003 25 0 0.0 1.6 0.00 0.00 0.00 42 1008.2
20260504013503 25 0 0.0 1.6 0.00 0.00 0.00 41 1008.3
20260504013005 25 0 0.0 1.6 0.00 0.00 0.00 40 1008.3
20260504012004 26 0 0.0 3.2 0.00 0.00 0.00 39 1008.4
20260504011504 26 0 0.0 3.2 0.00 0.00 0.00 40 1008.4
20260504011004 26 260 1.6 3.2 0.00 0.00 0.00 40 1008.5
20260504010503 26 238 1.6 4.8 0.00 0.00 0.00 38 1008.6
20260504010004 27 211 1.6 8.0 0.00 0.00 0.00 34 1008.6
20260504005004 26 186 1.6 6.4 0.00 0.00 0.00 35 1008.7
20260504004504 26 173 1.6 9.7 0.00 0.00 0.00 38 1008.8
20260504003503 26 73 1.6 4.8 0.00 0.00 0.00 38 1008.9
20260504002504 27 230 1.6 4.8 0.00 0.00 0.00 36 1009.0
20260504002004 27 219 1.6 4.8 0.00 0.00 0.00 33 1009.0
20260504001504 27 184 1.6 3.2 0.00 0.00 0.00 35 1009.1
20260504001003 27 214 1.6 8.0 0.00 0.00 0.00 35 1009.1
20260504000004 28 164 3.2 6.4 0.00 0.00 0.00 31 1009.2
20260503235504 28 246 3.2 6.4 0.00 0.00 0.00 32 1009.2
20260503234504 27 171 3.2 8.0 0.00 0.00 0.00 32 1009.4
20260503234004 27 149 3.2 8.0 0.00 0.00 0.00 32 1009.4
20260503233504 27 192 3.2 8.0 0.00 0.00 0.00 32 1009.4
20260503233004 27 215 3.2 6.4 0.00 0.00 0.00 32 1009.5
20260503232504 27 213 3.2 11.3 0.00 0.00 0.00 33 1009.6
20260503231503 27 176 3.2 9.7 0.00 0.00 0.00 35 1009.7
20260503231003 26 189 3.2 8.0 0.00 0.00 0.00 36 1009.8
20260503230503 27 192 3.2 11.3 0.00 0.00 0.00 35 1009.8
20260503225503 26 254 3.2 14.5 0.00 0.00 0.00 34 1010.0
20260503225003 27 206 4.8 14.5 0.00 0.00 0.00 33 1010.1
20260503224504 26 190 4.8 9.7 0.00 0.00 0.00 34 1010.1
20260503224003 26 216 4.8 9.7 0.00 0.00 0.00 34 1010.2
20260503223504 26 195 3.2 9.7 0.00 0.00 0.00 34 1010.2
20260503223004 26 181 3.2 12.9 0.00 0.00 0.00 35 1010.4
20260503222504 26 177 4.8 12.9 0.00 0.00 0.00 36 1010.4
20260503222004 26 177 4.8 14.5 0.00 0.00 0.00 35 1010.4
20260503221504 26 182 4.8 14.5 0.00 0.00 0.00 35 1010.5
20260503220504 26 157 4.8 12.9 0.00 0.00 0.00 37 1010.7
20260503220004 25 153 4.8 12.9 0.00 0.00 0.00 36 1010.7
20260503215503 26 179 3.2 9.7 0.00 0.00 0.00 36 1010.8
20260503215003 26 204 4.8 11.3 0.00 0.00 0.00 36 1010.9
20260503214504 26 202 4.8 14.5 0.00 0.00 0.00 35 1010.9
20260503214004 26 212 4.8 14.5 0.00 0.00 0.00 33 1011.0
20260503212504 26 221 4.8 12.9 0.00 0.00 0.00 37 1011.1
20260503212004 26 204 4.8 12.9 0.00 0.00 0.00 37 1011.1
20260503211504 25 211 3.2 12.9 0.00 0.00 0.00 37 1011.1
20260503211004 26 203 3.2 11.3 0.00 0.00 0.00 39 1011.2
20260503210004 25 162 4.8 14.5 0.00 0.00 0.00 42 1011.3
20260503204503 24 168 4.8 12.9 0.00 0.00 0.00 42 1011.5
20260503204003 25 175 4.8 14.5 0.00 0.00 0.00 40 1011.6
20260503203503 24 171 4.8 14.5 0.00 0.00 0.00 41 1011.6
20260503203005 24 167 4.8 14.5 0.00 0.00 0.00 41 1011.7
20260503202004 24 163 4.8 11.3 0.00 0.00 0.00 45 1011.8
20260503201504 24 165 4.8 11.3 0.00 0.00 0.00 45 1011.8
20260503201004 23 157 4.8 11.3 0.00 0.00 0.00 45 1011.9
20260503200004 24 196 4.8 14.5 0.00 0.00 0.00 44 1012.1
20260503195504 25 214 3.2 14.5 0.00 0.00 0.00 43 1012.2
20260503195004 24 168 4.8 14.5 0.00 0.00 0.00 46 1012.2
20260503194504 23 152 4.8 14.5 0.00 0.00 0.00 48 1012.2
20260503194003 23 148 4.8 11.3 0.00 0.00 0.00 47 1012.3
20260503193004 23 155 4.8 12.9 0.00 0.00 0.00 46 1012.4
20260503191504 23 150 4.8 12.9 0.00 0.00 0.00 46 1012.5
20260503191004 23 152 3.2 9.7 0.00 0.00 0.00 46 1012.6
20260503190504 23 154 4.8 9.7 0.00 0.00 0.00 46 1012.8
20260503190004 23 147 3.2 9.7 0.00 0.00 0.00 47 1012.8
20260503185503 23 155 3.2 8.0 0.00 0.00 0.00 45 1012.8
20260503185003 23 153 3.2 9.7 0.00 0.00 0.00 45 1012.9
20260503184504 22 144 3.2 12.9 0.00 0.00 0.00 47 1012.8
20260503184004 22 152 4.8 12.9 0.00 0.00 0.00 47 1012.9
20260503183504 22 159 3.2 9.7 0.00 0.00 0.00 46 1012.9
20260503183004 22 165 3.2 9.7 0.00 0.00 0.00 46 1012.9
20260503182005 23 196 3.2 9.7 0.00 0.00 0.00 46 1012.9
20260503181505 22 164 3.2 9.7 0.00 0.00 0.00 47 1012.9
20260503181003 22 188 3.2 6.4 0.00 0.00 0.00 47 1013.0
20260503180503 22 188 3.2 8.0 0.00 0.00 0.00 47 1012.9
20260503180005 21 167 3.2 9.7 0.00 0.00 0.00 47 1013.0
20260503175504 21 171 3.2 9.7 0.00 0.00 0.00 48 1013.1
20260503175004 21 179 4.8 9.7 0.00 0.00 0.00 47 1013.1
20260503174504 21 181 3.2 9.7 0.00 0.00 0.00 46 1013.1
20260503174003 21 175 3.2 8.0 0.00 0.00 0.00 46 1013.1